Simultaneous Nadir Overpasses (SNOs) Predictions

Prediction of SNOs between AQUA and METOP-C Satellite Orbit:

Table of predicted SNOs for the next 14.0 days since TLE Epoch: 12/11/2021
Index Date (AQUA) Time (AQUA) Lat,Lon (AQUA) SZA (AQUA ) Date (METOP-C) Time (METOP-C) Lat,Lon (METOP-C) SZA (METOP-C ) Distance(km) Time Diff (sec)
1 12/12/2021 19:50:52 -73.70, 56.82 83.23 12/12/2021 19:49:44 -73.72, 56.86 83.20 3.15 68
2 12/12/2021 20:40:21 73.77,-135.70 96.85 12/12/2021 20:40:24 73.76,-135.72 96.85 0.96 3
3 12/12/2021 21:29:49 -73.90, 31.66 83.02 12/12/2021 21:31:02 -73.90, 31.95 83.02 8.81 73
4 12/15/2021 15:25:11 -73.72, 123.20 83.03 12/15/2021 15:24:07 -73.71, 123.23 83.04 2.20 64
5 12/15/2021 16:14:40 73.80, -69.34 97.06 12/15/2021 16:14:46 73.80, -69.23 97.05 3.57 6
6 12/15/2021 17:04:11 -74.08, 97.68 82.66 12/15/2021 17:05:21 -74.08, 98.80 82.68 33.99 70
7 12/18/2021 10:59:28 -73.71,-170.34 82.94 12/18/2021 10:58:29 -73.69,-170.40 82.95 2.96 59
8 12/18/2021 11:48:57 73.79, -2.89 97.15 12/18/2021 11:49:08 73.78, -2.86 97.14 1.81 11
9 12/18/2021 12:38:31 -74.22, 163.79 82.41 12/18/2021 12:39:40 -74.21, 165.53 82.45 52.51 69
10 12/21/2021 06:33:46 -73.70,-103.89 82.90 12/21/2021 06:32:51 -73.72,-103.92 82.88 2.03 55
11 12/21/2021 07:23:15 73.79, 63.55 97.20 12/21/2021 07:23:30 73.80, 63.61 97.21 2.44 15
12 12/21/2021 08:12:52 -74.36,-130.12 82.20 12/21/2021 08:13:59 -74.38,-127.61 82.24 75.27 67
13 12/24/2021 02:08:04 -73.70, -37.47 82.91 12/24/2021 02:07:14 -73.69, -37.56 82.91 3.21 50
14 12/24/2021 02:57:33 73.80, 129.96 97.19 12/24/2021 02:57:53 73.78, 129.96 97.17 2.21 20



Historial Predications of SNOs between AQUA and METOP-C
